Weather History for Winnipeg, MB

Change the Weather History Date:

Sunday, January 29, 2012

  Actual Average Record
Temperature  
Mean Temperature 4 °F -  
Max Temperature 13 °F 11 °F 26 °F (1998)
Min Temperature -6 °F -1 °F -40 °F (2004)
Degree Days  
Heating Degree Days 62    
Moisture  
Dew Point -2 °F    
Average Humidity 76    
Maximum Humidity 92    
Minimum Humidity 46    
Precipitation  
Precipitation 0.02 in - - ()
Sea Level Pressure  
Sea Level Pressure 30.10 in    
Wind  
Wind Speed 9 mph ()    
Max Wind Speed 18 mph    
Max Gust Speed 25 mph    
Visibility 12.3 miles    
Events Snow    
Averages and records for this station are not official NWS values.
T = Trace of Precipitation, MM = Missing Value Source: Averaged Metar Reports

Daily Weather History Graph

Daily Weather History Graph

Search for Another Location

Airport:

Trip Planner

Search our weather history database for the weather conditions in past years. The results will help you decide how hot, cold, wet, or windy it might be!

Date:

Astronomy

Jan. 29, 2012 Rise Set
Actual Time 8:06 AM CST 5:17 PM CST
Civil Twilight 7:31 AM CST 5:52 PM CST
Nautical Twilight 6:52 AM CST 6:32 PM CST
Astronomical Twilight 6:14 AM CST 7:09 PM CST
Moon 10:13 AM CST (1/29) No Moon Set
Length of Visible Light 10h 21m
Length of Day
9h 10m
Waxing Crescent, 37% of the Moon is Illuminated
Jan 29
Waxing Crescent
Jan 30
First Quarter
Feb 7
Full
Feb 14
Last Quarter
Feb 21
New

Hourly Weather History & Observations

Time (CST) Temp. Windchill Dew Point Humidity Pressure Visibility Wind Dir Wind Speed Gust Speed Precip Events Conditions
12:00 AM -2 °F - -4 °F 88% 30.17 in 9 mi NW 8.1 mph - -  
12:00 AM -2.2 °F -15.6 °F -4.0 °F 92% 30.17 in 15.0 mi NW 6.9 mph - N/A   Mostly Cloudy
1:00 AM -0.4 °F -16.7 °F -4.0 °F 85% 30.17 in 15.0 mi WNW 10.4 mph - N/A   Scattered Clouds
2:00 AM -4.0 °F -17.8 °F -5.8 °F 92% 30.18 in 15.0 mi NW 6.9 mph - N/A   Clear
3:00 AM -4.0 °F -20.2 °F -20.2 °F 46% 30.20 in 15.0 mi WNW 9.2 mph - N/A   Partly Cloudy
4:00 AM -5.8 °F -18.4 °F -13.0 °F 71% 30.20 in 15.0 mi West 5.8 mph - N/A   Clear
5:00 AM -5.8 °F -19.9 °F -11.2 °F 77% 30.21 in 15.0 mi West 6.9 mph - N/A   Clear
6:00 AM -5 °F - -10 °F 66% 30.21 in 9 mi West 6.9 mph - -  
6:00 AM -5.8 °F -19.9 °F -11.2 °F 77% 30.20 in 15.0 mi West 6.9 mph - N/A   Clear
7:00 AM -5.8 °F -14.5 °F -13.0 °F 71% 30.20 in 15.0 mi West 3.5 mph - N/A   Clear
8:00 AM -5.8 °F -14.5 °F -9.4 °F 84% 30.20 in 15.0 mi South 3.5 mph - N/A   Partly Cloudy
9:00 AM -4.0 °F -12.4 °F -9.4 °F 78% 30.19 in 15.0 mi South 3.5 mph - N/A   Partly Cloudy
10:00 AM 1.4 °F -9.9 °F -4.0 °F 78% 30.19 in 15.0 mi SSE 5.8 mph - N/A   Mostly Cloudy
11:00 AM 5.0 °F -10.0 °F -0.4 °F 78% 30.18 in 15.0 mi South 10.4 mph - N/A   Mostly Cloudy
12:00 PM 7 °F - 0 °F 64% 30.15 in 9 mi South 13.8 mph - -  
12:00 PM 6.8 °F -10.7 °F 1.4 °F 79% 30.15 in 15.0 mi South 15.0 mph - N/A   Mostly Cloudy
1:00 PM 10.4 °F -6.0 °F 3.2 °F 73% 30.12 in 15.0 mi South 15.0 mph - N/A   Mostly Cloudy
2:00 PM 12.2 °F -3.7 °F 6.8 °F 79% 30.08 in 15.0 mi South 15.0 mph - N/A   Mostly Cloudy
3:00 PM 12.2 °F -4.3 °F 6.8 °F 79% 30.04 in 15.0 mi South 16.1 mph - N/A   Mostly Cloudy
4:00 PM 12.2 °F -4.3 °F 6.8 °F 79% 30.02 in 15.0 mi South 16.1 mph - N/A   Mostly Cloudy
5:00 PM 12.2 °F -4.3 °F 5.0 °F 73% 30.00 in 15.0 mi South 16.1 mph - N/A   Mostly Cloudy
6:00 PM 12 °F - 6 °F 67% 29.99 in 9 mi South 11.5 mph - -  
6:00 PM 12.2 °F -3.7 °F 6.8 °F 79% 29.98 in 15.0 mi SSE 15.0 mph - N/A   Mostly Cloudy
7:00 PM 12.2 °F -4.3 °F 5.0 °F 73% 29.96 in 15.0 mi SSE 16.1 mph - N/A   Mostly Cloudy
8:00 PM 12.2 °F -5.3 °F 5.0 °F 73% 29.93 in 15.0 mi SSE 18.4 mph - N/A   Mostly Cloudy
9:00 PM 12.2 °F -4.3 °F 5.0 °F 73% 29.90 in 15.0 mi SSE 16.1 mph 25.3 mph N/A   Mostly Cloudy
9:51 PM 12.2 °F -3.7 °F - N/A% - 2.0 mi SSE 15.0 mph 20.7 mph N/A Snow Light Snow
10:00 PM 12.2 °F -4.8 °F 6.8 °F 79% 29.88 in 6.0 mi SSE 17.3 mph - N/A Snow Light Snow
10:14 PM 12.2 °F -4.8 °F - N/A% - 2.0 mi SSE 17.3 mph - N/A Snow Light Snow
11:00 PM 12.2 °F -4.8 °F 8.6 °F 85% 29.84 in 2.0 mi SE 17.3 mph - N/A Snow Light Snow
11:35 PM 12.2 °F -4.8 °F - N/A% - 2.0 mi SE 17.3 mph - N/A Snow Light Snow